sat.trackr.live / text

‹ back to catalog

KUIPER-00200

NORAD 67772 · 2026-030J

PAYLOAD ACTIVE UNKNOWN

§ Identity

Operator
Country
US
Launch date
2026-02-12
Launch site
FRGUI
Launch vehicle
Mass (kg)
RCS (m²)

External: N2YO · Heavens-Above · Gunter

§ Orbital elements

Epoch: 2026-09-20T14:33:13.266720Z

Period
97.30 min
Inclination
51.8995°
Eccentricity
0.0000592
Mean motion
14.79926623 rev/d
Perigee alt
629.1 km
Apogee alt
630.0 km
Semi-major
7,007.7 km
B*
3.0481e-4
RAAN
43.7123°
Arg perigee
110.6840°
Mean anomaly
249.4186°
Rev number
3,442

§ Raw data

KUIPER-002001 67772U 26030J   26263.60640355  .00002103  00000+0  30481-3 0  99922 67772  51.8995  43.7123 0000592 110.6840 249.4186 14.79926623 34420

JSON: /api/v1/satellites/67772 · /tle

For live sub-satellite position, see the globe view (requires WebGL).

§ Visibility from observer

Set your observer location to see the next 7 days of passes ≥ 10°. The values pass through the URL so the page stays shareable.

No JS? Fill the form by hand. The geolocation button needs JavaScript.